Regional Weather Roundup
Issued by NWS Sioux Falls, SD

Home | Current Version | Previous Version | Text Only | Print | Product List | Glossary On
Versions: 1 2 3 4 5 6 7 8 9 10 11 12 13 14 15 16 17 18 19 20 21 22 23 24 25 26 27 28 29 30 31 32 33 34 35 36 37 38 39 40 41 42 43 44 45 46 47 48 49 50
000
ASUS43 KFSD 180802
RWRFSD

WEATHER ROUNDUP FOR SE SOUTH DAKOTA/SW MINNESOTA/NW IOWA
NATIONAL WEATHER SERVICE SIOUX FALLS SD
300 AM CDT WED OCT 18 2017

NOTE: "FAIR" INDICATES FEW OR NO CLOUDS BELOW 12,000 FEET WITH NO
SIGNIFICANT WEATHER AND OR OBSTRUCTIONS TO VISIBILITY.


SDZ038>040-050-052>070-180900-
SOUTHEAST SOUTH DAKOTA

CITY           SKY/WX    TMP DP  RH WIND       PRES   REMARKS
BROOKINGS      CLEAR     52  44  74 S12       29.79F
CHAMBERLAIN    CLEAR     52  36  53 SW5       29.73S
HURON          CLEAR     49  40  71 S8        29.72F
MADISON        FAIR      54  45  71 S9        29.81S
MITCHELL       CLEAR     51  42  71 S10       29.76F
SIOUX FALLS    CLEAR     56  46  69 S12       29.82F
WINNER         FAIR      57  31  37 S17       29.75F
YANKTON        CLEAR     58  44  60 S7        29.83F
$$

MNZ071-072-080-081-089-090-097-098-180900-
SOUTHWEST MINNESOTA

CITY           SKY/WX    TMP DP  RH WIND       PRES   REMARKS
FAIRMONT       CLEAR     47  43  86 S7        29.90F
JACKSON        CLEAR     48  43  81 S9        29.89F
LUVERNE        CLEAR     41  37  87 CALM      29.86F
MARSHALL       CLEAR     56  44  64 SW14      29.80F
MONTEVIDEO     CLEAR     54  45  71 SW7       29.79S
PIPESTONE      CLEAR     54  45  71 S8        29.83F
REDWOOD FALLS  CLEAR     54  44  69 S10       29.82F
TRACY          CLEAR     58  46  63 SW15      29.83F
WORTHINGTON    CLEAR     54  44  69 S10       29.88F
$$

IAZ001>003-012>014-020>022-031-032-NEZ013-014-SDZ071-180900-
NORTHWEST IOWA

CITY           SKY/WX    TMP DP  RH WIND       PRES   REMARKS
CHEROKEE       CLEAR     43  43 100 S3        29.90F
DENISON        CLEAR     52  45  76 VRB5      29.95F
ESTHERVILLE    CLEAR     44  43  96 S7        29.90F
LE MARS        CLEAR     48  45  87 S7        29.88F
ORANGE CITY    CLEAR     50  46  87 S6        29.88F
SHELDON        CLEAR     48  45  87 S6        29.87S
SIOUX CITY     CLEAR     44  43  96 E9        29.89F
SPENCER        CLEAR     44  41  89 SE5       29.90F
STORM LAKE     CLEAR     48  45  87 S10       29.91F
$$

ABBREVIATIONS USED IN REMARKS
   TC - TEMPERATURE IN CELSIUS
  WCI - WIND CHILL INDEX
   HX - HEAT INDEX
  VSB - VISIBILITY




USA.gov is the U.S. government's official web portal to all federal, state and local government web resources and services.